Flag for Guatemala Weather past 2 weeks in Guatemala, Guatemala

Now
64 °F

Partly cloudy.


Feels Like: 64 °F
Forecast: 63 / 73 °F
Wind: No wind

Location: Guatemala Aeropuertola Aurora

Current Time: Aug 31, 2014 at 1:24:40 AM

Latest Report: Aug 31, 2014 at 1:00 AM


Visibility: 4 mi

Pressure: 30.24 "Hg

Humidity: 94%

Dew point: 63 °F

Location of GuatemalaLocation

Historic Weather in Guatemala — Graph

°F

Guatemala temperature yesterday

Maximum temperature yesterday: 75 °F (at 12:00 PM)
Minimum temperature yesterday: 64 °F (at 12:00 AM)
Average temperature yesterday: 68 °F

Past Weeks' High & Low Weather Summary

 TemperatureHumidityPressure
High82 °F (Aug 26, 3:00 PM)100% (Aug 17, 12:00 AM)30.36 "Hg (Aug 17, 12:00 AM)
Low59 °F (Aug 24, 5:00 AM)40% (Aug 26, 3:00 PM)30.12 "Hg (Aug 25, 4:00 PM)
Average68 °F77%30.26 "Hg
* Reported Midnight between Aug 15 and Aug 16 — Midnight between Aug 30 and Aug 31, Guatemala, Weather by CustomWeather, © 2014

Note: Actual official high and low records may vary slightly from our data, if they occured in-between our weather recording intervals... More about our weather records

Advertising

Guatemala weather history for previous 24 hours

 ConditionsComfort  
Time TempWeatherWind HumidityBarometerVisibility
12:00 AM
Aug 31
64 °FPartly cloudy.No wind94%30.27 "HgN/A
11:00 PM
Aug 30
64 °FPartly cloudy.5 mph94%30.27 "Hg4 mi
10:00 PM64 °FPartly cloudy.7 mph100%30.27 "Hg4 mi
9:40 PMN/APartly cloudy.5 mphN/AN/A5 mi
9:00 PM66 °FPassing clouds.7 mph94%30.24 "HgN/A
8:00 PM66 °FDrizzle. Mostly cloudy.9 mph94%30.21 "HgN/A
7:12 PMN/ADrizzle.9 mphN/AN/A4 mi
7:00 PM66 °FDrizzle. Overcast.7 mph94%30.21 "HgN/A
6:00 PM66 °FDrizzle. More clouds than sun.12 mph94%30.18 "HgN/A
5:00 PM68 °FDrizzle. Broken clouds.12 mph83%30.15 "HgN/A
4:00 PM72 °FThunderstorms. Partly sunny.14 mph69%30.18 "HgN/A
3:00 PM75 °FThunderstorms. Scattered clouds.14 mph65%30.15 "HgN/A
2:00 PM73 °FScattered clouds.16 mph69%30.18 "HgN/A
1:00 PM75 °FPartly sunny.14 mph69%30.21 "HgN/A
12:00 PM75 °FBroken clouds.14 mph69%30.24 "HgN/A
11:00 AM73 °FBroken clouds.9 mph69%30.24 "HgN/A
10:00 AM72 °FPartly sunny.3 mph73%30.27 "Hg5 mi
9:00 AM68 °FPartly sunny.7 mph83%30.27 "Hg5 mi
8:00 AM68 °FFog.5 mph83%30.27 "Hg3 mi
7:00 AM64 °FFog.No wind94%30.24 "Hg2 mi
6:00 AM64 °FFog.No wind94%30.24 "Hg3 mi
5:00 AM64 °FFog.No wind94%30.24 "Hg3 mi
4:00 AM64 °FDrizzle. Fog.No wind94%30.21 "Hg3 mi
3:00 AM64 °FRain. Partly cloudy.No wind94%30.24 "Hg2 mi
2:00 AM64 °FDrizzle. Fog.3 mph94%30.24 "Hg3 mi
1:00 AM64 °FDrizzle. Mostly cloudy.No wind94%30.24 "Hg1 mi
Weather by CustomWeather, © 2014

See weather overviewHow to use our weather pages